BEL68F EGBB-EBOS

Flight info

Callsign BEL68F
Flight time 1h 0m
Altitude 27000
Route UNGAP L608 DTY L10 BPK/N0408F230 N601 DET Q70 KOK
Aircraft A320/M-SDE3FGHIRWY/LB1

Departure

Time 2026-04-27 15:24
Airport Birmingham Airport (EGBB)

Arrival

Time 2026-04-27 16:24
Airport Ostend-Bruges International Airport (EBOS)
Time Latitude Longitude Altitude Speed Heading
2026-04-27 15:08 52.44989 -1.73401 335 ft 0 kts 330°
2026-04-27 15:16 52.44985 -1.73397 330 ft 2 kts 326°
2026-04-27 15:16 52.44972 -1.73377 331 ft 3 kts 282°
2026-04-27 15:17 52.44972 -1.73346 331 ft 3 kts 248°
2026-04-27 15:17 52.44981 -1.73317 331 ft 3 kts 237°
2026-04-27 15:17 52.44986 -1.73305 331 ft 0 kts 235°
2026-04-27 15:20 52.44982 -1.73314 331 ft 3 kts 232°
2026-04-27 15:20 52.44965 -1.73349 331 ft 5 kts 233°
2026-04-27 15:20 52.44933 -1.73450 334 ft 16 kts 248°
2026-04-27 15:21 52.44864 -1.73638 332 ft 22 kts 231°
2026-04-27 15:21 52.44715 -1.73720 337 ft 22 kts 169°
2026-04-27 15:21 52.44593 -1.73599 338 ft 19 kts 145°
2026-04-27 15:21 52.44511 -1.73500 340 ft 0 kts 128°
2026-04-27 15:22 52.44508 -1.73495 336 ft 4 kts 135°
2026-04-27 15:22 52.44469 -1.73447 338 ft 3 kts 144°
2026-04-27 15:22 52.44397 -1.73414 341 ft 19 kts 199°
2026-04-27 15:22 52.44340 -1.73620 339 ft 17 kts 296°
2026-04-27 15:23 52.44393 -1.73696 336 ft 0 kts 322°
2026-04-27 15:23 52.44422 -1.73731 336 ft 31 kts 324°
2026-04-27 15:23 52.44829 -1.74182 329 ft 106 kts 326°
2026-04-27 15:23 52.45570 -1.75013 586 ft 137 kts 326°
2026-04-27 15:24 52.46351 -1.75968 1365 ft 144 kts 326°
2026-04-27 15:24 52.47236 -1.76951 1848 ft 165 kts 327°
2026-04-27 15:24 52.48260 -1.78074 2330 ft 189 kts 327°
2026-04-27 15:24 52.49419 -1.79350 2912 ft 210 kts 327°
2026-04-27 15:25 52.50782 -1.80266 3784 ft 217 kts 354°
2026-04-27 15:25 52.52268 -1.79856 4744 ft 223 kts 24°
2026-04-27 15:25 52.53423 -1.78117 5667 ft 234 kts 58°
2026-04-27 15:25 52.53875 -1.75509 6616 ft 242 kts 84°
2026-04-27 15:26 52.53839 -1.73668 7208 ft 247 kts 97°
2026-04-27 15:26 52.53467 -1.70865 8042 ft 254 kts 101°
2026-04-27 15:26 52.53006 -1.68030 8876 ft 261 kts 112°
2026-04-27 15:26 52.51962 -1.65507 9478 ft 280 kts 135°
2026-04-27 15:27 52.50033 -1.62378 10265 ft 303 kts 136°
2026-04-27 15:27 52.49000 -1.59936 11024 ft 311 kts 136°
2026-04-27 15:27 52.47444 -1.58257 11566 ft 315 kts 136°
2026-04-27 15:27 52.45859 -1.55719 12373 ft 322 kts 136°
2026-04-27 15:28 52.44206 -1.53059 12697 ft 345 kts 136°
2026-04-27 15:28 52.42440 -1.50197 12958 ft 369 kts 136°
2026-04-27 15:28 52.40583 -1.47174 13442 ft 383 kts 136°
2026-04-27 15:28 52.38677 -1.44068 14116 ft 390 kts 136°
2026-04-27 15:29 52.36735 -1.40911 14777 ft 395 kts 136°
2026-04-27 15:29 52.34772 -1.37733 15478 ft 399 kts 136°
2026-04-27 15:29 52.32778 -1.34546 16180 ft 403 kts 137°
2026-04-27 15:29 52.30752 -1.31348 16881 ft 407 kts 137°
2026-04-27 15:30 52.28705 -1.28141 17573 ft 410 kts 137°
2026-04-27 15:30 52.26633 -1.24898 18269 ft 414 kts 137°
2026-04-27 15:30 52.24545 -1.21629 18900 ft 418 kts 137°
2026-04-27 15:30 52.22438 -1.18331 19462 ft 423 kts 137°
2026-04-27 15:31 52.20301 -1.14985 20021 ft 428 kts 137°
2026-04-27 15:31 52.18200 -1.11511 20585 ft 433 kts 130°
2026-04-27 15:31 52.16393 -1.07560 21129 ft 438 kts 123°
2026-04-27 15:31 52.14675 -1.03439 21676 ft 442 kts 123°
2026-04-27 15:32 52.12937 -0.99280 22226 ft 446 kts 123°
2026-04-27 15:32 52.11176 -0.95089 22739 ft 451 kts 123°
2026-04-27 15:32 52.09397 -0.90874 23242 ft 455 kts 123°
2026-04-27 15:32 52.07631 -0.86708 23750 ft 459 kts 123°
2026-04-27 15:33 52.05800 -0.82393 24189 ft 462 kts 123°
2026-04-27 15:33 52.03965 -0.78072 24612 ft 465 kts 123°
2026-04-27 15:33 52.02117 -0.73726 25024 ft 468 kts 123°
2026-04-27 15:33 52.00263 -0.69370 25430 ft 471 kts 123°
2026-04-27 15:34 51.98395 -0.64983 25829 ft 474 kts 123°
2026-04-27 15:34 51.96513 -0.60570 26213 ft 477 kts 123°
2026-04-27 15:34 51.94615 -0.56135 26604 ft 480 kts 123°
2026-04-27 15:34 51.92702 -0.51668 26975 ft 483 kts 122°
2026-04-27 15:35 51.90779 -0.47186 27220 ft 486 kts 123°
2026-04-27 15:35 51.88843 -0.42682 27247 ft 487 kts 123°
2026-04-27 15:35 51.86905 -0.38178 27248 ft 488 kts 123°
2026-04-27 15:35 51.84967 -0.33687 27246 ft 487 kts 123°
2026-04-27 15:36 51.83025 -0.29196 27245 ft 487 kts 123°
2026-04-27 15:36 51.81077 -0.24709 27244 ft 487 kts 123°
2026-04-27 15:36 51.79131 -0.20236 27302 ft 486 kts 123°
2026-04-27 15:36 51.77314 -0.16062 27296 ft 486 kts 123°
2026-04-27 15:37 51.75402 -0.11771 27294 ft 486 kts 127°
2026-04-27 15:37 51.73130 -0.07726 27070 ft 487 kts 134°
2026-04-27 15:37 51.70730 -0.03873 26801 ft 486 kts 135°
2026-04-27 15:37 51.68334 -0.00044 26545 ft 485 kts 135°
2026-04-27 15:38 51.65937 0.03771 26251 ft 484 kts 135°
2026-04-27 15:38 51.63546 0.07575 25996 ft 481 kts 135°
2026-04-27 15:38 51.61173 0.11347 25750 ft 478 kts 135°
2026-04-27 15:38 51.58815 0.15086 25503 ft 475 kts 135°
2026-04-27 15:39 51.56473 0.18796 25261 ft 472 kts 135°
2026-04-27 15:39 51.54135 0.22494 25018 ft 469 kts 136°
2026-04-27 15:39 51.51809 0.26162 24776 ft 467 kts 136°
2026-04-27 15:39 51.49499 0.29797 24538 ft 464 kts 136°
2026-04-27 15:40 51.47205 0.33410 24299 ft 461 kts 136°
2026-04-27 15:40 51.44932 0.36992 24071 ft 458 kts 136°
2026-04-27 15:40 51.42654 0.40573 23830 ft 456 kts 136°
2026-04-27 15:40 51.40396 0.44114 23561 ft 453 kts 136°
2026-04-27 15:41 51.38147 0.47632 23362 ft 451 kts 136°
2026-04-27 15:41 51.35911 0.51126 22940 ft 447 kts 136°
2026-04-27 15:41 51.33790 0.54744 22217 ft 445 kts 129°
2026-04-27 15:41 51.32093 0.58841 21573 ft 441 kts 118°
2026-04-27 15:42 51.30881 0.63343 21038 ft 446 kts 107°
2026-04-27 15:42 51.30159 0.68286 20700 ft 468 kts 97°
2026-04-27 15:42 51.29908 0.73450 20291 ft 476 kts 92°
2026-04-27 15:42 51.29718 0.78752 19869 ft 480 kts 92°
2026-04-27 15:43 51.29525 0.84068 19366 ft 476 kts 93°
2026-04-27 15:43 51.29332 0.89347 18992 ft 477 kts 93°
2026-04-27 15:43 51.29139 0.94593 18583 ft 474 kts 93°
2026-04-27 15:43 51.28941 0.99821 17858 ft 467 kts 93°
2026-04-27 15:44 51.28739 1.04976 17163 ft 465 kts 93°
2026-04-27 15:44 51.28532 1.10151 16907 ft 465 kts 94°
2026-04-27 15:44 51.28326 1.15291 16650 ft 463 kts 93°
2026-04-27 15:44 51.28118 1.20411 16398 ft 461 kts 94°
2026-04-27 15:45 51.27910 1.25497 16125 ft 456 kts 94°
2026-04-27 15:45 51.27706 1.30511 15366 ft 450 kts 94°
2026-04-27 15:45 51.27506 1.35484 15050 ft 449 kts 94°
2026-04-27 15:45 51.27301 1.40459 14809 ft 449 kts 94°
2026-04-27 15:46 51.27093 1.45428 14572 ft 447 kts 94°
2026-04-27 15:46 51.26885 1.50318 14040 ft 438 kts 94°
2026-04-27 15:46 51.26675 1.55155 13471 ft 436 kts 94°
2026-04-27 15:46 51.26465 1.59992 13192 ft 436 kts 94°
2026-04-27 15:47 51.26253 1.64813 12929 ft 434 kts 94°
2026-04-27 15:47 51.26041 1.69609 12669 ft 432 kts 94°
2026-04-27 15:47 51.25829 1.74363 12316 ft 424 kts 94°
2026-04-27 15:47 51.25618 1.79028 11633 ft 420 kts 94°
2026-04-27 15:48 51.25409 1.83643 11367 ft 408 kts 94°
2026-04-27 15:48 51.25207 1.88056 11113 ft 390 kts 94°
2026-04-27 15:48 51.25009 1.92283 10863 ft 374 kts 94°
2026-04-27 15:49 51.24633 2.00256 10394 ft 346 kts 94°
2026-04-27 15:49 51.24457 2.04022 10174 ft 334 kts 94°
2026-04-27 15:49 51.24286 2.07644 10042 ft 320 kts 94°
2026-04-27 15:49 51.24121 2.11107 9906 ft 308 kts 94°
2026-04-27 15:50 51.23960 2.14452 9777 ft 299 kts 94°
2026-04-27 15:50 51.23803 2.17752 9642 ft 296 kts 94°
2026-04-27 15:50 51.23648 2.21024 9508 ft 295 kts 94°
2026-04-27 15:50 51.23490 2.24286 9378 ft 294 kts 94°
2026-04-27 15:51 51.23329 2.27528 9248 ft 293 kts 94°
2026-04-27 15:51 51.23164 2.30775 9115 ft 293 kts 94°
2026-04-27 15:51 51.23000 2.34004 8985 ft 292 kts 94°
2026-04-27 15:51 51.22828 2.37224 8881 ft 291 kts 96°
2026-04-27 15:52 51.22339 2.40302 8696 ft 291 kts 111°
2026-04-27 15:52 51.21368 2.43114 8500 ft 290 kts 126°
2026-04-27 15:52 51.20069 2.45570 8294 ft 289 kts 130°
2026-04-27 15:52 51.18756 2.47989 8084 ft 288 kts 130°
2026-04-27 15:53 51.17448 2.50409 7877 ft 287 kts 130°
2026-04-27 15:53 51.16151 2.52812 7677 ft 286 kts 130°
2026-04-27 15:53 51.14852 2.55211 7470 ft 285 kts 129°
2026-04-27 15:53 51.13562 2.57596 7262 ft 284 kts 129°
2026-04-27 15:54 51.12278 2.59969 7067 ft 283 kts 129°
2026-04-27 15:54 51.11175 2.62522 6868 ft 278 kts 112°
2026-04-27 15:54 51.10677 2.65459 6673 ft 274 kts 92°
2026-04-27 15:54 51.10825 2.68430 6472 ft 268 kts 73°
2026-04-27 15:55 51.11551 2.71129 6282 ft 265 kts 59°
2026-04-27 15:55 51.12149 2.72817 6155 ft 264 kts 58°
2026-04-27 15:55 51.13351 2.76227 5906 ft 262 kts 59°
2026-04-27 15:55 51.14238 2.78757 5732 ft 261 kts 59°
2026-04-27 15:56 51.15104 2.81233 5529 ft 250 kts 59°
2026-04-27 15:56 51.15924 2.83581 5377 ft 241 kts 59°
2026-04-27 15:56 51.16725 2.85875 5200 ft 232 kts 59°
2026-04-27 15:56 51.17498 2.88088 4931 ft 228 kts 59°
2026-04-27 15:57 51.18249 2.90289 4674 ft 224 kts 63°
2026-04-27 15:57 51.18627 2.92687 4439 ft 224 kts 81°
2026-04-27 15:57 51.18792 2.95140 4195 ft 220 kts 82°
2026-04-27 15:57 51.18932 2.97553 3970 ft 217 kts 81°
2026-04-27 15:58 51.19066 2.99946 3727 ft 214 kts 82°
2026-04-27 15:58 51.19195 3.02304 3499 ft 215 kts 78°
2026-04-27 15:58 51.19320 3.04670 3250 ft 213 kts 82°
2026-04-27 15:58 51.19443 3.07010 3007 ft 210 kts 82°
2026-04-27 15:59 51.19726 3.09255 2786 ft 206 kts 60°
2026-04-27 15:59 51.20650 3.10882 2598 ft 194 kts 31°
2026-04-27 15:59 51.21921 3.11557 2587 ft 194 kts
2026-04-27 15:59 51.23193 3.11166 2828 ft 183 kts 334°
2026-04-27 16:00 51.24127 3.10010 2973 ft 160 kts 313°
2026-04-27 16:00 51.24500 3.09025 2962 ft 153 kts 295°
2026-04-27 16:00 51.24682 3.06840 2984 ft 152 kts 266°
2026-04-27 16:00 51.24337 3.05246 2998 ft 154 kts 240°
2026-04-27 16:01 51.23649 3.03938 3018 ft 153 kts 228°
2026-04-27 16:01 51.22915 3.02684 3030 ft 155 kts 226°
2026-04-27 16:01 51.22253 3.01352 3013 ft 152 kts 242°
2026-04-27 16:01 51.21829 2.99805 3041 ft 153 kts 258°
2026-04-27 16:02 51.21587 2.98168 3001 ft 152 kts 261°
2026-04-27 16:02 51.21347 2.96544 2891 ft 150 kts 261°
2026-04-27 16:02 51.21105 2.94933 2822 ft 150 kts 261°
2026-04-27 16:02 51.20863 2.93330 2773 ft 148 kts 259°
2026-04-27 16:03 51.20623 2.91735 2681 ft 147 kts 260°
2026-04-27 16:03 51.20384 2.90147 2625 ft 148 kts 260°
2026-04-27 16:03 51.20146 2.88567 2561 ft 147 kts 261°
2026-04-27 16:03 51.19908 2.86985 2516 ft 147 kts 261°
2026-04-27 16:04 51.19670 2.85416 2449 ft 150 kts 258°
2026-04-27 16:04 51.19424 2.83815 2258 ft 147 kts 259°
2026-04-27 16:04 51.19181 2.82247 2160 ft 147 kts 256°
2026-04-27 16:04 51.18928 2.80677 2371 ft 160 kts 260°
2026-04-27 16:05 51.18643 2.78726 2168 ft 191 kts 260°
2026-04-27 16:05 51.18438 2.77333 2104 ft 192 kts 261°
2026-04-27 16:05 51.18136 2.75286 2009 ft 193 kts 259°
2026-04-27 16:05 51.17823 2.73202 2011 ft 194 kts 259°
2026-04-27 16:06 51.17510 2.71114 2005 ft 194 kts 259°
2026-04-27 16:06 51.17196 2.69027 2009 ft 196 kts 259°
2026-04-27 16:06 51.16879 2.66921 2012 ft 195 kts 259°
2026-04-27 16:06 51.16562 2.64819 2012 ft 195 kts 259°
2026-04-27 16:07 51.16247 2.62726 2014 ft 194 kts 259°
2026-04-27 16:07 51.15933 2.60635 2014 ft 194 kts 260°
2026-04-27 16:07 51.15620 2.58549 2011 ft 194 kts 259°
2026-04-27 16:07 51.15279 2.56466 2014 ft 195 kts 250°
2026-04-27 16:08 51.14451 2.54779 2010 ft 198 kts 214°
2026-04-27 16:08 51.13157 2.54105 2005 ft 197 kts 178°
2026-04-27 16:08 51.11870 2.54672 2011 ft 193 kts 142°
2026-04-27 16:08 51.11003 2.56215 2010 ft 185 kts 110°
2026-04-27 16:09 51.10779 2.58161 2021 ft 172 kts 80°
2026-04-27 16:09 51.11755 2.60904 2003 ft 133 kts 40°
2026-04-27 16:09 51.12431 2.61876 2002 ft 129 kts 41°
2026-04-27 16:10 51.13754 2.63790 2008 ft 128 kts 41°
2026-04-27 16:10 51.15073 2.65700 2010 ft 128 kts 41°
2026-04-27 16:11 51.15730 2.66651 2011 ft 128 kts 40°
2026-04-27 16:11 51.16995 2.68641 2008 ft 129 kts 54°
2026-04-27 16:12 51.17501 2.71384 1824 ft 127 kts 71°
2026-04-27 16:12 51.17732 2.72750 1675 ft 128 kts 71°
2026-04-27 16:12 51.18162 2.75463 1341 ft 127 kts 72°
2026-04-27 16:13 51.18376 2.76850 1176 ft 127 kts 72°
2026-04-27 16:13 51.18792 2.79569 824 ft 127 kts 70°
2026-04-27 16:13 51.18990 2.80902 670 ft 126 kts 72°
2026-04-27 16:14 51.19376 2.83604 353 ft 125 kts 72°
2026-04-27 16:14 51.19845 2.86227 103 ft 130 kts 76°
2026-04-27 16:15 51.20237 2.88809 1423 ft 152 kts 74°
2026-04-27 16:15 51.20742 2.92664 1983 ft 196 kts 76°
2026-04-27 16:16 51.22248 2.95899 2022 ft 190 kts 13°
2026-04-27 16:16 51.24860 2.95165 2023 ft 196 kts 343°
2026-04-27 16:17 51.26800 2.92338 2009 ft 206 kts 284°
2026-04-27 16:17 51.26569 2.87739 2008 ft 211 kts 263°
2026-04-27 16:18 51.26051 2.83123 2008 ft 210 kts 262°
2026-04-27 16:18 51.25460 2.78560 2011 ft 210 kts 262°
2026-04-27 16:19 51.25200 2.76270 2007 ft 210 kts 262°
2026-04-27 16:19 51.24948 2.73979 2022 ft 210 kts 263°
2026-04-27 16:20 51.23807 2.67291 2009 ft 214 kts 226°
2026-04-27 16:20 51.22532 2.66130 2005 ft 214 kts 188°
2026-04-27 16:20 51.19699 2.66973 2014 ft 208 kts 141°
2026-04-27 16:21 51.18696 2.68589 2014 ft 205 kts 123°
2026-04-27 16:21 51.18073 2.74834 1422 ft 193 kts 73°
2026-04-27 16:22 51.18382 2.76866 1190 ft 182 kts 73°
2026-04-27 16:22 51.18906 2.80342 733 ft 139 kts 72°
2026-04-27 16:22 51.19124 2.81779 555 ft 130 kts 71°
2026-04-27 16:23 51.19331 2.83154 369 ft 125 kts 70°
2026-04-27 16:23 51.19737 2.85790 47 ft 122 kts 72°
2026-04-27 16:23 51.19914 2.86996 15 ft 76 kts 74°
2026-04-27 16:24 51.19980 2.87392 15 ft 24 kts 64°
2026-04-27 16:24 51.20303 2.87554 14 ft 20 kts 328°
2026-04-27 16:25 51.20360 2.87472 14 ft 0 kts 341°
2026-04-27 16:27 51.20401 2.87455 14 ft 0 kts 344°